This demonstration page uses our WeatherBlox Daily Observations layout. Learn more.

Left ArrowRight Arrow

39.01783, -85.05884

Hourly Observations for May 11, 2022

Temp ( °F °C ) Dew Point ( °F °C ) Humidity (%) Winds ( mph kmh ) Pressure ( in mb ) Visibility ( mi km ) Precip ( " mm )
12:52 am 00:52 Clear 71 21.7 64 17.8 79 79 S 6 9 30.14 1021 10 16 0.00 0.00
1:52 am 01:52 Partly Cloudy 71 21.7 64 17.8 79 79 Calm 30.14 1021 10 16 0.00 0.00
2:52 am 02:52 Cloudy 71 21.7 65 18.3 81 81 E 6 9 30.14 1021 10 16 0.00 0.00
3:52 am 03:52 Cloudy 71 21.7 65 18.3 81 81 ESE 7 11 30.14 1021 10 16 0.00 0.00
4:52 am 04:52 Cloudy 71 21.7 64 17.8 79 79 S 3 6 30.14 1021 10 16 0.00 0.00
5:52 am 05:52 Mostly Cloudy 70 21.1 64 17.8 82 82 S 3 6 30.14 1021 10 16 0.00 0.00
6:52 am 06:52 Cloudy 69 20.6 63 17.2 81 81 SE 5 7 30.16 1021 10 16 0.00 0.00
7:52 am 07:52 Cloudy 71 21.7 63 17.2 76 76 Calm 30.17 1022 10 16 0.00 0.00
8:52 am 08:52 Cloudy 73 22.8 61 16.1 66 66 S 3 6 30.18 1022 10 16 0.00 0.00
9:52 am 09:52 Cloudy 75 23.9 60 15.6 60 60 S 5 7 30.19 1023 10 16 0.00 0.00
10:52 am 10:52 Mostly Cloudy 77 25 62 16.7 60 60 SSE 3 6 30.19 1023 10 16 0.00 0.00
11:52 am 11:52 Cloudy 80 26.7 64 17.8 58 58 Calm 30.18 1022 10 16 0.00 0.00
12:52 pm 12:52 Partly Cloudy 83 28.3 68 20 61 61 WNW 5 7 30.17 1022 10 16 0.00 0.00
1:52 pm 13:52 Mostly Sunny 84 28.9 67 19.4 57 57 NE 5 7 30.17 1022 10 16 0.00 0.00
2:52 pm 14:52 Mostly Cloudy 84 28.9 65 18.3 53 53 NE 8 13 30.15 1021 10 16 0.00 0.00
3:52 pm 15:52 Mostly Sunny 86 30 64 17.8 48 48 E 7 11 30.14 1021 10 16 0.00 0.00
4:52 pm 16:52 Partly Cloudy 86 30 62 16.7 45 45 NE 10 17 30.13 1020 10 16 0.00 0.00
5:52 pm 17:52 Mostly Cloudy 85 29.4 61 16.1 45 45 E 9 15 30.12 1020 10 16 0.00 0.00
6:52 pm 18:52 Mostly Cloudy 84 28.9 60 15.6 44 44 ENE 12 19 30.11 1020 10 16 0.00 0.00
7:52 pm 19:52 Mostly Cloudy 81 27.2 57 13.9 44 44 E 13 20 30.10 1019 10 16 0.00 0.00
8:52 pm 20:52 Mostly Cloudy 77 25 56 13.3 48 48 E 7 11 30.11 1020 10 16 0.00 0.00
9:52 pm 21:52 Mostly Cloudy 75 23.9 47 8.3 37 37 E 8 13 30.12 1020 10 16 0.00 0.00
10:52 pm 22:52 Mostly Cloudy 72 22.2 45 7.2 38 38 E 8 13 30.12 1020 10 16 0.00 0.00
11:52 pm 23:52 Clear 70 21.1 45 7.2 41 41 E 8 13 30.12 1020 10 16 0.00 0.00

Powered by AerisWeather